Voltar ao catálogo

SL-14 R/B

AtivoPO
NORAD 17291·ROCKET BODY·🇷🇺 Russia

Lançado Jan 5, 1987 de Plesetsk Cosmodrome

Loading…

Próximas Passagens (próximas 24 horas)

TLE

AtualizadoSource: Space-Track

Época: Sep 14, 2026, 14:59 UTC

1 17291U 87001B   26257.62497390  .00000024  00000-0  84406-5 0  9991
2 17291  82.4695  28.8052 0010087 301.5012  58.5162 13.84695060  5665

Acompanhe SL-14 R/B em tempo real com AllMySat

Download on the App Store